Date String (YYYY-MM-DD hh:mm:ss) UTC,Instrument flags,Ambient pressure (hPa),Sample flow (lpm),Bypass flow (lpm),Sample temperature (°C),Ambient temperature (°C),ASC tube jacket temperature (°C),LED temperature (°C),Box temperature (°C),Sample RH (%),Span deviation,Mass concentration (μg/m³),Mass concentration (μg/m³),Mass concentration (μg/m³)
DateTimeUTC,F1_M11,P_M11,Q1_M11,Q2_M11,T1_M11,T2_M11,T3_M11,T4_M11,T5_M11,U1_M11,ZSPAN_M11,X0_M11,X2_M11,X1_M11
2022-01-08 06:00:00,,0812.9,5.00,0.00,25.0,23.9,00.0,34.3,26.6,10.3,0000.0,0000.38,0000.29,0000.26
2022-01-08 06:01:00,,0812.9,5.01,0.00,24.9,23.9,00.0,34.3,26.6,10.1,0000.0,0000.39,0000.29,0000.25
2022-01-08 06:02:00,,0812.8,4.99,0.00,24.9,23.8,00.0,34.2,26.5,10.2,0000.0,0000.41,0000.29,0000.25
2022-01-08 06:03:00,,0812.8,5.01,0.00,24.8,23.8,00.0,34.2,26.5,10.4,0000.0,0000.41,0000.29,0000.25
2022-01-08 06:04:00,,0812.8,4.99,0.00,24.8,23.7,00.0,34.2,26.4,10.5,0000.0,0000.42,0000.29,0000.25
2022-01-08 06:05:00,,0812.8,5.00,0.00,24.8,23.7,00.0,34.1,26.4,10.5,0000.0,0000.43,0000.30,0000.25
2022-01-08 06:06:00,,0812.8,5.01,0.00,24.7,23.7,00.0,34.1,26.4,10.5,0000.0,0000.42,0000.30,0000.26
2022-01-08 06:07:00,,0812.7,5.00,0.00,24.7,23.7,00.0,34.1,26.4,10.6,0000.0,0000.41,0000.29,0000.25
2022-01-08 06:08:00,,0812.7,4.99,0.00,24.7,23.6,00.0,34.0,26.3,10.5,0000.0,0000.41,0000.29,0000.25
2022-01-08 06:09:00,,0812.6,5.02,0.00,24.6,23.6,00.0,34.0,26.3,10.7,0000.0,0000.40,0000.29,0000.25
2022-01-08 06:10:00,,0812.7,4.99,0.00,24.6,23.5,00.0,34.0,26.2,10.8,0000.0,0000.39,0000.29,0000.26
2022-01-08 06:11:00,,0812.6,5.00,0.00,24.6,23.5,00.0,33.9,26.2,10.9,0000.0,0000.38,0000.28,0000.26
2022-01-08 06:12:00,,0812.6,5.02,0.00,24.5,23.5,00.0,33.9,26.2,10.9,0000.0,0000.36,0000.28,0000.26
2022-01-08 06:13:00,,0812.6,5.00,0.00,24.5,23.5,00.0,33.8,26.1,10.8,0000.0,0000.34,0000.28,0000.27
2022-01-08 06:14:00,,0812.5,4.99,0.00,24.5,23.4,00.0,33.8,26.1,10.6,0000.0,0000.40,0000.31,0000.28
2022-01-08 06:15:00,,0812.5,5.00,0.00,24.4,23.4,00.0,33.8,26.1,10.8,0000.0,0000.47,0000.34,0000.28
2022-01-08 06:16:00,,0812.6,5.01,0.00,24.4,23.3,00.0,33.7,26.0,10.8,0000.0,0000.52,0000.35,0000.29
2022-01-08 06:17:00,,0812.6,5.00,0.00,24.3,23.3,00.0,33.7,26.0,11.0,0000.0,0000.62,0000.38,0000.28
2022-01-08 06:18:00,,0812.6,5.01,0.00,24.3,23.3,00.0,33.7,25.9,11.0,0000.0,0000.69,0000.40,0000.29
2022-01-08 06:19:00,,0812.6,4.99,0.00,24.3,23.3,00.0,33.7,25.9,11.1,0000.0,0000.79,0000.41,0000.29
2022-01-08 06:20:00,,0812.6,4.99,0.00,24.3,23.4,00.0,33.6,26.0,11.3,0000.0,0000.79,0000.41,0000.29
2022-01-08 06:21:00,,0812.6,5.01,0.00,24.3,23.4,00.0,33.6,26.0,11.0,0000.0,0000.77,0000.40,0000.29
2022-01-08 06:22:00,,0812.7,4.99,0.00,24.3,23.3,00.0,33.6,26.0,11.1,0000.0,0000.76,0000.39,0000.28
2022-01-08 06:23:00,,0812.7,5.00,0.00,24.2,23.3,00.0,33.5,25.9,11.3,0000.0,0000.77,0000.40,0000.28
2022-01-08 06:24:00,,0812.7,5.00,0.00,24.2,23.2,00.0,33.5,25.9,11.3,0000.0,0000.78,0000.40,0000.28
2022-01-08 06:25:00,,0812.8,5.00,0.00,24.2,23.3,00.0,33.5,25.8,11.3,0000.0,0000.77,0000.40,0000.28
2022-01-08 06:26:00,,0812.8,4.99,0.00,24.2,23.2,00.0,33.5,25.8,11.2,0000.0,0000.70,0000.37,0000.27
2022-01-08 06:27:00,,0812.8,5.02,0.00,24.1,23.2,00.0,33.4,25.8,11.2,0000.0,0000.64,0000.35,0000.27
2022-01-08 06:28:00,,0812.8,5.00,0.00,24.1,23.2,00.0,33.4,25.7,11.2,0000.0,0000.56,0000.33,0000.28
2022-01-08 06:29:00,,0812.8,4.99,0.00,24.1,23.2,00.0,33.4,25.7,11.3,0000.0,0000.49,0000.32,0000.27
2022-01-08 06:30:00,,0812.7,5.01,0.00,24.1,23.2,00.0,33.4,25.7,11.2,0000.0,0000.40,0000.31,0000.28
2022-01-08 06:31:00,,0812.7,5.00,0.00,24.1,23.2,00.0,33.4,25.7,11.2,0000.0,0000.42,0000.32,0000.28
2022-01-08 06:32:00,,0812.7,5.00,0.00,24.0,23.2,00.0,33.3,25.7,11.0,0000.0,0000.43,0000.32,0000.28
2022-01-08 06:33:00,,0812.7,5.00,0.00,24.0,23.2,00.0,33.3,25.7,11.1,0000.0,0000.43,0000.32,0000.28
2022-01-08 06:34:00,,0812.6,5.00,0.00,24.0,23.2,00.0,33.3,25.6,11.2,0000.0,0000.43,0000.32,0000.29
2022-01-08 06:35:00,,0812.6,5.01,0.00,24.0,23.2,00.0,33.3,25.6,11.2,0000.0,0000.45,0000.33,0000.28
2022-01-08 06:36:00,,0812.7,5.00,0.00,24.0,23.2,00.0,33.3,25.6,11.2,0000.0,0000.45,0000.33,0000.28
2022-01-08 06:37:00,,0812.6,5.00,0.00,24.0,23.2,00.0,33.2,25.6,11.2,0000.0,0000.49,0000.34,0000.29
2022-01-08 06:38:00,,0812.6,5.01,0.00,23.9,23.1,00.0,33.2,25.6,11.2,0000.0,0000.52,0000.35,0000.29
2022-01-08 06:39:00,,0812.7,4.98,0.00,23.9,23.1,00.0,33.2,25.6,11.2,0000.0,0000.54,0000.36,0000.29
2022-01-08 06:40:00,,0812.7,5.00,0.00,23.9,23.1,00.0,33.2,25.5,11.1,0000.0,0000.55,0000.36,0000.29
2022-01-08 06:41:00,,0812.6,5.00,0.00,23.9,23.1,00.0,33.2,25.5,11.0,0000.0,0000.54,0000.36,0000.29
2022-01-08 06:42:00,,0812.6,4.99,0.00,23.9,23.0,00.0,33.1,25.5,11.0,0000.0,0000.54,0000.36,0000.29
2022-01-08 06:43:00,,0812.6,5.00,0.00,23.8,22.9,00.0,33.1,25.5,11.0,0000.0,0000.57,0000.37,0000.29
2022-01-08 06:44:00,,0812.5,5.00,0.00,23.8,22.9,00.0,33.1,25.5,11.2,0000.0,0000.66,0000.41,0000.30
2022-01-08 06:45:00,,0812.5,5.00,0.00,23.8,22.9,00.0,33.1,25.5,11.2,0000.0,0000.70,0000.42,0000.30
2022-01-08 06:46:00,,0812.5,5.01,0.00,23.8,22.8,00.0,33.0,25.4,11.1,0000.0,0000.69,0000.41,0000.30
2022-01-08 06:47:00,,0812.5,4.98,0.00,23.7,22.8,00.0,33.0,25.4,11.0,0000.0,0000.70,0000.42,0000.30
2022-01-08 06:48:00,,0812.5,5.00,0.00,23.7,22.8,00.0,33.0,25.4,11.1,0000.0,0000.67,0000.41,0000.31
2022-01-08 06:49:00,,0812.6,5.00,0.00,23.7,22.8,00.0,32.9,25.3,11.3,0000.0,0000.64,0000.40,0000.30
2022-01-08 06:50:00,,0812.5,5.00,0.00,23.7,22.8,00.0,32.9,25.3,11.5,0000.0,0000.61,0000.39,0000.30
2022-01-08 06:51:00,,0812.5,4.99,0.00,23.7,22.8,00.0,32.9,25.3,11.3,0000.0,0000.60,0000.38,0000.30
2022-01-08 06:52:00,,0812.5,5.00,0.00,23.7,22.9,00.0,32.9,25.3,11.3,0000.0,0000.60,0000.38,0000.30
2022-01-08 06:53:00,,0812.5,5.01,0.00,23.6,22.8,00.0,32.9,25.3,11.4,0000.0,0000.61,0000.39,0000.31
2022-01-08 06:54:00,,0812.5,5.00,0.00,23.6,22.8,00.0,32.9,25.3,11.3,0000.0,0000.57,0000.38,0000.31
2022-01-08 06:55:00,,0812.6,4.99,0.00,23.6,22.8,00.0,32.8,25.2,11.1,0000.0,0000.54,0000.36,0000.31
2022-01-08 06:56:00,,0812.6,5.00,0.00,23.6,22.8,00.0,32.8,25.2,11.4,0000.0,0000.54,0000.37,0000.30
2022-01-08 06:57:00,,0812.7,5.00,0.00,23.6,22.8,00.0,32.8,25.2,11.5,0000.0,0000.52,0000.37,0000.31
2022-01-08 06:58:00,,0812.6,5.00,0.00,23.5,22.7,00.0,32.8,25.2,11.2,0000.0,0000.51,0000.36,0000.31
2022-01-08 06:59:00,,0812.5,5.00,0.00,23.5,22.7,00.0,32.8,25.2,10.9,0000.0,0000.58,0000.37,0000.30
